Time,TemperatureF,DewpointF,PressureIn,WindDirection,WindDirectionDegrees,WindSpeedMPH,WindSpeedGustMPH,Humidity,HourlyPrecipIn,Conditions,Clouds,dailyrainin,SoftwareType,DateUTC
2013-01-23 00:02:00,10.6,-11.7,29.65,North,0,0.0,0.0,35,0.00,,---,0.00,VWS V14.00,2013-01-23 05:02:00,
2013-01-23 00:04:00,10.4,-11.8,29.65,North,0,0.0,0.0,35,0.00,,---,0.00,VWS V14.00,2013-01-23 05:04:00,
2013-01-23 00:06:00,10.4,-11.8,29.65,North,0,0.0,0.0,35,0.00,,---,0.00,VWS V14.00,2013-01-23 05:06:00,
2013-01-23 00:08:00,10.4,-11.8,29.65,North,0,0.0,0.0,35,0.00,,---,0.00,VWS V14.00,2013-01-23 05:08:00,
2013-01-23 00:13:00,10.4,-11.8,29.65,North,0,0.0,0.0,35,0.00,,---,0.00,VWS V14.00,2013-01-23 05:13:00,
2013-01-23 00:18:00,10.2,-12.0,29.65,North,0,0.0,0.0,35,0.00,,---,0.00,VWS V14.00,2013-01-23 05:18:00,
2013-01-23 00:23:00,10.2,-12.0,29.65,North,0,0.0,0.0,35,0.00,,---,0.00,VWS V14.00,2013-01-23 05:23:00,
2013-01-23 00:29:00,10.2,-12.0,29.65,North,0,0.0,0.0,35,0.00,,---,0.00,VWS V14.00,2013-01-23 05:29:00,
2013-01-23 00:34:00,10.0,-12.1,29.65,North,0,0.0,0.0,35,0.00,,---,0.00,VWS V14.00,2013-01-23 05:34:00,
2013-01-23 00:39:00,10.0,-12.1,29.65,North,0,0.0,0.0,35,0.00,,---,0.00,VWS V14.00,2013-01-23 05:39:00,
2013-01-23 00:44:00,9.9,-12.3,29.65,North,0,0.0,0.0,35,0.00,,---,0.00,VWS V14.00,2013-01-23 05:44:00,
2013-01-23 00:50:00,9.7,-12.5,29.65,North,0,0.0,0.0,35,0.00,,---,0.00,VWS V14.00,2013-01-23 05:50:00,
2013-01-23 00:56:00,9.7,-12.5,29.65,North,0,0.0,0.0,35,0.00,,---,0.00,VWS V14.00,2013-01-23 05:56:00,
2013-01-23 01:02:00,9.5,-12.6,29.65,North,0,0.0,0.0,35,0.00,,---,0.00,VWS V14.00,2013-01-23 06:02:00,
2013-01-23 01:08:00,9.5,-12.6,29.65,North,0,0.0,0.0,35,0.00,,---,0.00,VWS V14.00,2013-01-23 06:08:00,
2013-01-23 01:14:00,9.3,-12.8,29.65,North,0,0.0,0.0,35,0.00,,---,0.00,VWS V14.00,2013-01-23 06:14:00,
2013-01-23 01:19:00,9.3,-12.8,29.65,North,0,0.0,0.0,35,0.00,,---,0.00,VWS V14.00,2013-01-23 06:19:00,
2013-01-23 01:25:00,9.1,-12.9,29.65,North,0,0.0,0.0,35,0.00,,---,0.00,VWS V14.00,2013-01-23 06:25:00,
2013-01-23 01:30:00,9.0,-13.1,29.65,North,0,0.0,0.0,35,0.00,,---,0.00,VWS V14.00,2013-01-23 06:30:00,
2013-01-23 01:35:00,9.1,-12.9,29.65,North,0,0.0,0.0,35,0.00,,---,0.00,VWS V14.00,2013-01-23 06:35:00,
2013-01-23 01:40:00,9.1,-12.9,29.65,North,0,0.0,0.0,35,0.00,,---,0.00,VWS V14.00,2013-01-23 06:40:00,
2013-01-23 01:46:00,9.1,-12.9,29.65,North,0,0.0,0.0,35,0.00,,---,0.00,VWS V14.00,2013-01-23 06:46:00,
2013-01-23 01:52:00,9.3,-12.8,29.65,North,0,0.0,0.0,35,0.00,,---,0.00,VWS V14.00,2013-01-23 06:52:00,
2013-01-23 01:56:00,9.5,-12.6,29.65,North,0,0.0,0.0,35,0.00,,---,0.00,VWS V14.00,2013-01-23 06:56:00,
2013-01-23 02:02:00,9.5,-12.6,29.65,North,0,0.0,0.0,35,0.00,,---,0.00,VWS V14.00,2013-01-23 07:02:00,
2013-01-23 02:07:00,9.5,-12.6,29.65,North,0,0.0,0.0,35,0.00,,---,0.00,VWS V14.00,2013-01-23 07:07:00,
2013-01-23 02:12:00,9.5,-12.6,29.65,North,0,0.0,0.0,35,0.00,,---,0.00,VWS V14.00,2013-01-23 07:12:00,
2013-01-23 02:17:00,9.3,-12.8,29.65,North,0,0.0,0.0,35,0.00,,---,0.00,VWS V14.00,2013-01-23 07:17:00,
2013-01-23 02:22:00,9.3,-12.8,29.65,North,0,0.0,0.0,35,0.00,,---,0.00,VWS V14.00,2013-01-23 07:22:00,
2013-01-23 02:28:00,9.3,-12.8,29.65,North,0,0.0,0.0,35,0.00,,---,0.00,VWS V14.00,2013-01-23 07:28:00,
2013-01-23 02:33:00,9.1,-12.9,29.68,North,0,0.0,0.0,35,0.00,,---,0.00,VWS V14.00,2013-01-23 07:33:00,
2013-01-23 02:38:00,9.1,-12.9,29.68,North,0,0.0,0.0,35,0.00,,---,0.00,VWS V14.00,2013-01-23 07:38:00,
2013-01-23 02:43:00,9.0,-13.1,29.68,North,0,0.0,0.0,35,0.00,,---,0.00,VWS V14.00,2013-01-23 07:43:00,
2013-01-23 02:48:00,8.8,-13.3,29.68,North,0,0.0,0.0,35,0.00,,---,0.00,VWS V14.00,2013-01-23 07:48:00,
2013-01-23 02:54:00,8.8,-13.3,29.68,North,0,0.0,0.0,35,0.00,,---,0.00,VWS V14.00,2013-01-23 07:54:00,
2013-01-23 02:59:00,8.8,-13.3,29.68,North,0,0.0,0.0,35,0.00,,---,0.00,VWS V14.00,2013-01-23 07:59:00,
2013-01-23 03:04:00,8.8,-13.3,29.68,North,0,0.0,0.0,35,0.00,,---,0.00,VWS V14.00,2013-01-23 08:04:00,
2013-01-23 03:10:00,8.6,-13.4,29.68,North,0,0.0,0.0,35,0.00,,---,0.00,VWS V14.00,2013-01-23 08:10:00,
2013-01-23 03:16:00,8.6,-13.4,29.68,North,0,0.0,0.0,35,0.00,,---,0.00,VWS V14.00,2013-01-23 08:16:00,
2013-01-23 03:22:00,8.4,-13.6,29.68,North,0,0.0,0.0,35,0.00,,---,0.00,VWS V14.00,2013-01-23 08:22:00,
2013-01-23 03:28:00,8.4,-13.6,29.68,North,0,0.0,0.0,35,0.00,,---,0.00,VWS V14.00,2013-01-23 08:28:00,
2013-01-23 03:34:00,8.2,-13.8,29.68,North,0,0.0,0.0,35,0.00,,---,0.00,VWS V14.00,2013-01-23 08:34:00,
2013-01-23 03:39:00,8.1,-13.9,29.68,North,0,0.0,0.0,35,0.00,,---,0.00,VWS V14.00,2013-01-23 08:39:00,
2013-01-23 03:45:00,8.1,-13.9,29.68,North,0,0.0,0.0,35,0.00,,---,0.00,VWS V14.00,2013-01-23 08:45:00,
2013-01-23 03:50:00,7.9,-14.1,29.65,North,0,0.0,0.0,35,0.00,,---,0.00,VWS V14.00,2013-01-23 08:50:00,
2013-01-23 03:55:00,7.9,-14.1,29.65,North,0,0.0,0.0,35,0.00,,---,0.00,VWS V14.00,2013-01-23 08:55:00,
2013-01-23 04:01:00,8.1,-13.9,29.68,North,0,0.0,0.0,35,0.00,,---,0.00,VWS V14.00,2013-01-23 09:01:00,
2013-01-23 04:06:00,7.9,-14.1,29.68,North,0,0.0,0.0,35,0.00,,---,0.00,VWS V14.00,2013-01-23 09:06:00,
2013-01-23 04:12:00,7.7,-14.2,29.68,North,0,0.0,0.0,35,0.00,,---,0.00,VWS V14.00,2013-01-23 09:12:00,
2013-01-23 04:17:00,7.9,-14.1,29.68,North,0,0.0,0.0,35,0.00,,---,0.00,VWS V14.00,2013-01-23 09:17:00,
2013-01-23 04:23:00,7.9,-14.1,29.68,North,0,0.0,0.0,35,0.00,,---,0.00,VWS V14.00,2013-01-23 09:23:00,
2013-01-23 04:28:00,7.7,-14.2,29.68,North,0,0.0,0.0,35,0.00,,---,0.00,VWS V14.00,2013-01-23 09:28:00,
2013-01-23 04:33:00,7.7,-14.2,29.68,North,0,0.0,0.0,35,0.00,,---,0.00,VWS V14.00,2013-01-23 09:33:00,
2013-01-23 04:38:00,7.5,-14.4,29.68,North,0,0.0,0.0,35,0.00,,---,0.00,VWS V14.00,2013-01-23 09:38:00,
2013-01-23 04:44:00,7.5,-14.4,29.68,North,0,0.0,0.0,35,0.00,,---,0.00,VWS V14.00,2013-01-23 09:44:00,
2013-01-23 04:50:00,7.5,-14.4,29.68,North,0,0.0,0.0,35,0.00,,---,0.00,VWS V14.00,2013-01-23 09:50:00,
2013-01-23 04:56:00,7.3,-14.6,29.68,North,0,0.0,0.0,35,0.00,,---,0.00,VWS V14.00,2013-01-23 09:56:00,
2013-01-23 05:02:00,7.3,-14.6,29.68,North,0,0.0,0.0,35,0.00,,---,0.00,VWS V14.00,2013-01-23 10:02:00,
2013-01-23 05:08:00,7.2,-14.7,29.68,North,0,0.0,0.0,35,0.00,,---,0.00,VWS V14.00,2013-01-23 10:08:00,
2013-01-23 05:14:00,7.0,-14.9,29.68,North,0,0.0,0.0,35,0.00,,---,0.00,VWS V14.00,2013-01-23 10:14:00,
2013-01-23 05:19:00,7.0,-14.9,29.68,North,0,0.0,0.0,35,0.00,,---,0.00,VWS V14.00,2013-01-23 10:19:00,
2013-01-23 05:24:00,7.0,-14.9,29.68,North,0,0.0,0.0,35,0.00,,---,0.00,VWS V14.00,2013-01-23 10:24:00,
2013-01-23 05:29:00,7.0,-14.9,29.68,North,0,0.0,0.0,35,0.00,,---,0.00,VWS V14.00,2013-01-23 10:29:00,
2013-01-23 05:34:00,7.0,-14.9,29.68,North,0,0.0,0.0,35,0.00,,---,0.00,VWS V14.00,2013-01-23 10:34:00,
2013-01-23 05:39:00,7.0,-14.9,29.68,North,0,0.0,0.0,35,0.00,,---,0.00,VWS V14.00,2013-01-23 10:39:00,
2013-01-23 05:44:00,6.8,-15.1,29.68,North,0,0.0,0.0,35,0.00,,---,0.00,VWS V14.00,2013-01-23 10:44:00,
2013-01-23 05:49:00,7.0,-14.9,29.68,North,0,0.0,0.0,35,0.00,,---,0.00,VWS V14.00,2013-01-23 10:49:00,
2013-01-23 05:54:00,6.8,-15.1,29.68,North,0,0.0,0.0,35,0.00,,---,0.00,VWS V14.00,2013-01-23 10:54:00,
2013-01-23 05:59:00,6.6,-15.2,29.68,North,0,0.0,0.0,35,0.00,,---,0.00,VWS V14.00,2013-01-23 10:59:00,
2013-01-23 06:05:00,6.6,-15.2,29.68,North,0,0.0,0.0,35,0.00,,---,0.00,VWS V14.00,2013-01-23 11:05:00,
2013-01-23 06:10:00,6.6,-15.2,29.68,North,0,0.0,0.0,35,0.00,,---,0.00,VWS V14.00,2013-01-23 11:10:00,
2013-01-23 06:15:00,6.6,-15.2,29.68,North,0,0.0,0.0,35,0.00,,---,0.00,VWS V14.00,2013-01-23 11:15:00,
2013-01-23 06:21:00,6.6,-15.2,29.68,North,0,0.0,0.0,35,0.00,,---,0.00,VWS V14.00,2013-01-23 11:21:00,
2013-01-23 06:26:00,6.6,-15.2,29.68,North,0,0.0,0.0,35,0.00,,---,0.00,VWS V14.00,2013-01-23 11:26:00,
2013-01-23 06:31:00,6.6,-15.2,29.71,North,0,0.0,0.0,35,0.00,,---,0.00,VWS V14.00,2013-01-23 11:31:00,
2013-01-23 06:37:00,6.4,-15.4,29.71,North,0,0.0,0.0,35,0.00,,---,0.00,VWS V14.00,2013-01-23 11:37:00,
2013-01-23 06:43:00,6.4,-15.4,29.71,North,0,0.0,0.0,35,0.00,,---,0.00,VWS V14.00,2013-01-23 11:43:00,
2013-01-23 06:49:00,6.4,-15.4,29.68,North,0,0.0,0.0,35,0.00,,---,0.00,VWS V14.00,2013-01-23 11:49:00,
2013-01-23 06:54:00,6.3,-15.5,29.68,North,0,0.0,0.0,35,0.00,,---,0.00,VWS V14.00,2013-01-23 11:54:00,
2013-01-23 06:59:00,6.3,-15.5,29.68,North,0,0.0,0.0,35,0.00,,---,0.00,VWS V14.00,2013-01-23 11:59:00,
2013-01-23 07:05:00,6.1,-15.7,29.71,North,0,0.0,0.0,35,0.00,,---,0.00,VWS V14.00,2013-01-23 12:05:00,
2013-01-23 07:11:00,6.1,-15.7,29.71,North,0,0.0,0.0,35,0.00,,---,0.00,VWS V14.00,2013-01-23 12:11:00,
2013-01-23 07:16:00,6.1,-15.7,29.71,North,0,0.0,0.0,35,0.00,,---,0.00,VWS V14.00,2013-01-23 12:16:00,
2013-01-23 07:22:00,6.1,-15.7,29.71,North,0,0.0,0.0,35,0.00,,---,0.00,VWS V14.00,2013-01-23 12:22:00,
2013-01-23 07:28:00,6.3,-15.5,29.71,North,0,0.0,0.0,35,0.00,,---,0.00,VWS V14.00,2013-01-23 12:28:00,
2013-01-23 07:34:00,6.3,-15.5,29.71,North,0,0.0,0.0,35,0.00,,---,0.00,VWS V14.00,2013-01-23 12:34:00,
2013-01-23 07:40:00,6.4,-15.4,29.71,North,0,0.0,0.0,35,0.00,,---,0.00,VWS V14.00,2013-01-23 12:40:00,
2013-01-23 07:45:00,6.4,-15.4,29.71,North,0,0.0,0.0,35,0.00,,---,0.00,VWS V14.00,2013-01-23 12:45:00,
2013-01-23 07:50:00,6.8,-15.1,29.71,North,0,0.0,0.0,35,0.00,,---,0.00,VWS V14.00,2013-01-23 12:50:00,
2013-01-23 07:56:00,7.0,-14.9,29.71,North,0,0.0,0.0,35,0.00,,---,0.00,VWS V14.00,2013-01-23 12:56:00,
2013-01-23 08:01:00,8.1,-13.9,29.71,North,0,0.0,0.0,35,0.00,,---,0.00,VWS V14.00,2013-01-23 13:01:00,
2013-01-23 08:07:00,13.1,-9.4,29.71,North,0,0.0,0.0,35,0.00,,---,0.00,VWS V14.00,2013-01-23 13:07:00,
2013-01-23 08:12:00,13.3,-8.7,29.71,North,0,0.0,0.0,36,0.00,,---,0.00,VWS V14.00,2013-01-23 13:12:00,
2013-01-23 08:19:00,12.4,-10.1,29.71,North,0,0.0,0.0,35,0.00,,---,0.00,VWS V14.00,2013-01-23 13:19:00,
2013-01-23 08:25:00,10.9,-11.3,29.71,North,0,0.0,0.0,35,0.00,,---,0.00,VWS V14.00,2013-01-23 13:25:00,
2013-01-23 08:30:00,13.6,-8.9,29.71,North,0,0.0,0.0,35,0.00,,---,0.00,VWS V14.00,2013-01-23 13:30:00,
2013-01-23 08:35:00,14.5,-8.1,29.71,North,0,0.0,0.0,35,0.00,,---,0.00,VWS V14.00,2013-01-23 13:35:00,
2013-01-23 08:41:00,16.7,-6.8,29.71,North,0,0.0,0.0,34,0.00,,---,0.00,VWS V14.00,2013-01-23 13:41:00,
2013-01-23 08:46:00,17.6,-6.0,29.71,North,0,0.0,0.0,34,0.00,,---,0.00,VWS V14.00,2013-01-23 13:46:00,
2013-01-23 08:51:00,16.0,-7.4,29.71,North,0,0.0,0.0,34,0.00,,---,0.00,VWS V14.00,2013-01-23 13:51:00,
2013-01-23 08:56:00,18.0,-6.3,29.71,North,0,0.0,0.0,33,0.00,,---,0.00,VWS V14.00,2013-01-23 13:56:00,
2013-01-23 09:02:00,20.5,-4.7,29.74,North,0,0.0,0.0,32,0.00,,---,0.00,VWS V14.00,2013-01-23 14:02:00,
2013-01-23 09:07:00,16.7,-7.4,29.74,North,0,0.0,0.0,33,0.00,,---,0.00,VWS V14.00,2013-01-23 14:07:00,
2013-01-23 09:12:00,19.6,-5.5,29.74,North,0,0.0,0.0,32,0.00,,---,0.00,VWS V14.00,2013-01-23 14:12:00,
2013-01-23 09:17:00,16.5,-8.8,29.71,North,0,0.0,0.0,31,0.00,,---,0.00,VWS V14.00,2013-01-23 14:17:00,
2013-01-23 09:22:00,20.5,-4.7,29.71,North,0,0.0,0.0,32,0.00,,---,0.00,VWS V14.00,2013-01-23 14:22:00,
2013-01-23 09:28:00,21.6,-3.7,29.71,North,0,0.0,0.0,32,0.00,,---,0.00,VWS V14.00,2013-01-23 14:28:00,
2013-01-23 09:34:00,22.6,-4.1,29.71,North,0,0.0,0.0,30,0.00,,---,0.00,VWS V14.00,2013-01-23 14:34:00,
2013-01-23 09:39:00,23.0,-3.8,29.71,North,0,0.0,0.0,30,0.00,,---,0.00,VWS V14.00,2013-01-23 14:39:00,
2013-01-23 09:44:00,23.7,-3.9,29.71,North,0,0.0,0.0,29,0.00,,---,0.00,VWS V14.00,2013-01-23 14:44:00,
2013-01-23 09:49:00,30.2,1.0,29.71,North,0,0.0,0.0,28,0.00,,---,0.00,VWS V14.00,2013-01-23 14:49:00,
2013-01-23 09:55:00,26.8,-1.9,29.71,North,0,0.0,0.0,28,0.00,,---,0.00,VWS V14.00,2013-01-23 14:55:00,
2013-01-23 10:00:00,21.0,-7.7,29.71,North,0,0.0,0.0,27,0.00,,---,0.00,VWS V14.00,2013-01-23 15:00:00,
2013-01-23 10:05:00,18.5,-9.2,29.71,North,0,0.0,0.0,28,0.00,,---,0.00,VWS V14.00,2013-01-23 15:05:00,
2013-01-23 10:10:00,14.5,-11.9,29.71,North,0,0.0,0.0,29,0.00,,---,0.00,VWS V14.00,2013-01-23 15:10:00,
2013-01-23 10:16:00,15.4,-9.8,29.71,North,0,0.0,0.0,31,0.00,,---,0.00,VWS V14.00,2013-01-23 15:16:00,
2013-01-23 10:21:00,15.6,-9.6,29.71,North,0,0.0,0.0,31,0.00,,---,0.00,VWS V14.00,2013-01-23 15:21:00,
2013-01-23 10:26:00,15.8,-9.5,29.71,North,0,0.0,0.0,31,0.00,,---,0.00,VWS V14.00,2013-01-23 15:26:00,
2013-01-23 10:31:00,15.8,-9.5,29.71,North,0,0.0,0.0,31,0.00,,---,0.00,VWS V14.00,2013-01-23 15:31:00,
2013-01-23 10:37:00,15.3,-9.9,29.71,North,0,0.0,0.0,31,0.00,,---,0.00,VWS V14.00,2013-01-23 15:37:00,
2013-01-23 10:42:00,15.3,-9.9,29.71,North,0,0.0,0.0,31,0.00,,---,0.00,VWS V14.00,2013-01-23 15:42:00,
2013-01-23 10:47:00,14.5,-10.6,29.71,North,0,0.0,0.0,31,0.00,,---,0.00,VWS V14.00,2013-01-23 15:47:00,
2013-01-23 10:52:00,15.1,-10.1,29.71,North,0,0.0,0.0,31,0.00,,---,0.00,VWS V14.00,2013-01-23 15:52:00,
2013-01-23 10:57:00,15.3,-9.9,29.71,North,0,0.0,0.0,31,0.00,,---,0.00,VWS V14.00,2013-01-23 15:57:00,
2013-01-23 11:03:00,15.3,-9.9,29.71,North,0,0.0,0.0,31,0.00,,---,0.00,VWS V14.00,2013-01-23 16:03:00,
2013-01-23 11:09:00,15.8,-9.5,29.71,North,0,0.0,0.0,31,0.00,,---,0.00,VWS V14.00,2013-01-23 16:09:00,
2013-01-23 11:14:00,16.2,-9.1,29.71,North,0,0.0,0.0,31,0.00,,---,0.00,VWS V14.00,2013-01-23 16:14:00,
2013-01-23 11:19:00,16.0,-9.3,29.71,North,0,0.0,0.0,31,0.00,,---,0.00,VWS V14.00,2013-01-23 16:19:00,
2013-01-23 11:24:00,16.0,-9.3,29.71,North,0,0.0,0.0,31,0.00,,---,0.00,VWS V14.00,2013-01-23 16:24:00,
2013-01-23 11:30:00,16.0,-9.3,29.71,North,0,0.0,0.0,31,0.00,,---,0.00,VWS V14.00,2013-01-23 16:30:00,
2013-01-23 11:35:00,16.0,-11.4,29.68,North,0,0.0,0.0,28,0.00,,---,0.00,VWS V14.00,2013-01-23 16:35:00,
2013-01-23 11:40:00,16.7,-8.7,29.68,North,0,0.0,0.0,31,0.00,,---,0.00,VWS V14.00,2013-01-23 16:40:00,
2013-01-23 11:46:00,16.9,-8.5,29.68,North,0,0.0,0.0,31,0.00,,---,0.00,VWS V14.00,2013-01-23 16:46:00,
2013-01-23 11:51:00,17.1,-8.4,29.68,North,0,0.0,0.0,31,0.00,,---,0.00,VWS V14.00,2013-01-23 16:51:00,
2013-01-23 11:56:00,16.0,-9.3,29.68,North,0,0.0,0.0,31,0.00,,---,0.00,VWS V14.00,2013-01-23 16:56:00,
2013-01-23 12:01:00,16.2,-9.1,29.68,North,0,0.0,0.0,31,0.00,,---,0.00,VWS V14.00,2013-01-23 17:01:00,
2013-01-23 12:06:00,16.0,-9.3,29.68,North,0,0.0,0.0,31,0.00,,---,0.00,VWS V14.00,2013-01-23 17:06:00,
2013-01-23 12:12:00,16.0,-11.4,29.68,North,0,0.0,0.0,28,0.00,,---,0.00,VWS V14.00,2013-01-23 17:12:00,
2013-01-23 12:17:00,16.2,-11.2,29.68,North,0,0.0,0.0,28,0.00,,---,0.00,VWS V14.00,2013-01-23 17:17:00,
2013-01-23 12:22:00,15.8,-10.8,29.68,North,0,0.0,0.0,29,0.00,,---,0.00,VWS V14.00,2013-01-23 17:22:00,
2013-01-23 12:27:00,16.5,-8.8,29.68,North,0,0.0,0.0,31,0.00,,---,0.00,VWS V14.00,2013-01-23 17:27:00,
2013-01-23 12:32:00,16.7,-10.7,29.68,North,0,0.0,0.0,28,0.00,,---,0.00,VWS V14.00,2013-01-23 17:32:00,
2013-01-23 12:37:00,16.3,-11.1,29.68,North,0,0.0,0.0,28,0.00,,---,0.00,VWS V14.00,2013-01-23 17:37:00,
2013-01-23 12:43:00,16.5,-10.9,29.68,North,0,0.0,0.0,28,0.00,,---,0.00,VWS V14.00,2013-01-23 17:43:00,
2013-01-23 12:48:00,16.3,-11.1,29.65,North,0,0.0,0.0,28,0.00,,---,0.00,VWS V14.00,2013-01-23 17:48:00,
2013-01-23 12:53:00,16.7,-8.7,29.65,North,0,0.0,0.0,31,0.00,,---,0.00,VWS V14.00,2013-01-23 17:53:00,
2013-01-23 12:59:00,17.8,-8.4,29.65,North,0,0.0,0.0,30,0.00,,---,0.00,VWS V14.00,2013-01-23 17:59:00,
2013-01-23 13:05:00,18.1,-8.1,29.65,North,0,0.0,0.0,30,0.00,,---,0.00,VWS V14.00,2013-01-23 18:05:00,
2013-01-23 13:10:00,17.6,-9.9,29.65,North,0,0.0,0.0,28,0.00,,---,0.00,VWS V14.00,2013-01-23 18:10:00,
2013-01-23 13:15:00,17.8,-9.8,29.65,North,0,0.0,0.0,28,0.00,,---,0.00,VWS V14.00,2013-01-23 18:15:00,
2013-01-23 13:21:00,17.2,-10.3,29.65,North,0,0.0,0.0,28,0.00,,---,0.00,VWS V14.00,2013-01-23 18:21:00,
2013-01-23 13:26:00,17.6,-9.9,29.65,North,0,0.0,0.0,28,0.00,,---,0.00,VWS V14.00,2013-01-23 18:26:00,
2013-01-23 13:31:00,18.0,-9.6,29.65,North,0,0.0,0.0,28,0.00,,---,0.00,VWS V14.00,2013-01-23 18:31:00,
2013-01-23 13:36:00,18.0,-9.6,29.65,North,0,0.0,0.0,28,0.00,,---,0.00,VWS V14.00,2013-01-23 18:36:00,
2013-01-23 13:41:00,18.1,-9.5,29.65,North,0,0.0,0.0,28,0.00,,---,0.00,VWS V14.00,2013-01-23 18:41:00,
2013-01-23 13:46:00,18.3,-9.3,29.65,North,0,0.0,0.0,28,0.00,,---,0.00,VWS V14.00,2013-01-23 18:46:00,
2013-01-23 13:52:00,18.1,-9.5,29.65,North,0,0.0,0.0,28,0.00,,---,0.00,VWS V14.00,2013-01-23 18:52:00,
2013-01-23 13:57:00,17.4,-10.1,29.65,North,0,0.0,0.0,28,0.00,,---,0.00,VWS V14.00,2013-01-23 18:57:00,
2013-01-23 14:02:00,16.9,-10.6,29.65,North,0,0.0,0.0,28,0.00,,---,0.00,VWS V14.00,2013-01-23 19:02:00,
2013-01-23 14:08:00,17.1,-10.4,29.65,North,0,0.0,0.0,28,0.00,,---,0.00,VWS V14.00,2013-01-23 19:08:00,
2013-01-23 14:14:00,17.1,-10.4,29.65,North,0,0.0,0.0,28,0.00,,---,0.00,VWS V14.00,2013-01-23 19:14:00,
2013-01-23 14:19:00,17.1,-10.4,29.65,North,0,0.0,0.0,28,0.00,,---,0.00,VWS V14.00,2013-01-23 19:19:00,
2013-01-23 14:24:00,16.9,-10.6,29.65,North,0,0.0,0.0,28,0.00,,---,0.00,VWS V14.00,2013-01-23 19:24:00,
2013-01-23 14:29:00,16.7,-10.7,29.65,North,0,0.0,0.0,28,0.00,,---,0.00,VWS V14.00,2013-01-23 19:29:00,
2013-01-23 14:35:00,16.9,-10.6,29.65,North,0,0.0,0.0,28,0.00,,---,0.00,VWS V14.00,2013-01-23 19:35:00,
2013-01-23 14:40:00,16.9,-10.6,29.65,North,0,0.0,0.0,28,0.00,,---,0.00,VWS V14.00,2013-01-23 19:40:00,
2013-01-23 14:45:00,16.9,-10.6,29.65,North,0,0.0,0.0,28,0.00,,---,0.00,VWS V14.00,2013-01-23 19:45:00,
2013-01-23 14:50:00,16.9,-10.6,29.65,North,0,0.0,0.0,28,0.00,,---,0.00,VWS V14.00,2013-01-23 19:50:00,
2013-01-23 14:56:00,17.1,-10.4,29.65,North,0,0.0,0.0,28,0.00,,---,0.00,VWS V14.00,2013-01-23 19:56:00,
2013-01-23 15:01:00,16.5,-10.9,29.65,North,0,0.0,0.0,28,0.00,,---,0.00,VWS V14.00,2013-01-23 20:01:00,
2013-01-23 15:06:00,16.2,-11.2,29.65,North,0,0.0,0.0,28,0.00,,---,0.00,VWS V14.00,2013-01-23 20:06:00,
2013-01-23 15:19:00,14.9,-11.6,29.65,North,0,0.0,0.0,29,0.00,,---,0.00,VWS V14.00,2013-01-23 20:19:00,
2013-01-23 15:28:00,14.4,-12.1,29.65,North,0,0.0,0.0,29,0.00,,---,0.00,VWS V14.00,2013-01-23 20:28:00,
2013-01-23 15:33:00,14.4,-12.1,29.65,North,0,0.0,0.0,29,0.00,,---,0.00,VWS V14.00,2013-01-23 20:33:00,
2013-01-23 15:39:00,14.2,-12.2,29.65,North,0,0.0,0.0,29,0.00,,---,0.00,VWS V14.00,2013-01-23 20:39:00,
2013-01-23 15:45:00,13.8,-12.6,29.65,North,0,0.0,0.0,29,0.00,,---,0.00,VWS V14.00,2013-01-23 20:45:00,
2013-01-23 15:51:00,13.6,-12.7,29.65,North,0,0.0,0.0,29,0.00,,---,0.00,VWS V14.00,2013-01-23 20:51:00,
2013-01-23 15:56:00,13.5,-12.9,29.65,North,0,0.0,0.0,29,0.00,,---,0.00,VWS V14.00,2013-01-23 20:56:00,
2013-01-23 16:01:00,13.3,-13.0,29.65,North,0,0.0,0.0,29,0.00,,---,0.00,VWS V14.00,2013-01-23 21:01:00,
2013-01-23 16:06:00,13.1,-13.2,29.65,North,0,0.0,0.0,29,0.00,,---,0.00,VWS V14.00,2013-01-23 21:06:00,
2013-01-23 16:12:00,12.9,-13.3,29.65,North,0,0.0,0.0,29,0.00,,---,0.00,VWS V14.00,2013-01-23 21:12:00,
2013-01-23 16:17:00,12.6,-13.6,29.65,North,0,0.0,0.0,29,0.00,,---,0.00,VWS V14.00,2013-01-23 21:17:00,
2013-01-23 16:22:00,12.2,-14.0,29.65,North,0,0.0,0.0,29,0.00,,---,0.00,VWS V14.00,2013-01-23 21:22:00,
2013-01-23 16:28:00,11.8,-14.3,29.65,North,0,0.0,0.0,29,0.00,,---,0.00,VWS V14.00,2013-01-23 21:28:00,
2013-01-23 16:34:00,11.5,-14.6,29.68,North,0,0.0,0.0,29,0.00,,---,0.00,VWS V14.00,2013-01-23 21:34:00,
2013-01-23 16:39:00,11.3,-14.8,29.68,North,0,0.0,0.0,29,0.00,,---,0.00,VWS V14.00,2013-01-23 21:39:00,
2013-01-23 16:44:00,11.1,-14.9,29.68,North,0,0.0,0.0,29,0.00,,---,0.00,VWS V14.00,2013-01-23 21:44:00,
2013-01-23 16:49:00,10.9,-15.1,29.68,North,0,0.0,0.0,29,0.00,,---,0.00,VWS V14.00,2013-01-23 21:49:00,
2013-01-23 16:55:00,10.8,-15.2,29.68,North,0,0.0,0.0,29,0.00,,---,0.00,VWS V14.00,2013-01-23 21:55:00,
2013-01-23 17:00:00,10.4,-15.6,29.68,North,0,0.0,0.0,29,0.00,,---,0.00,VWS V14.00,2013-01-23 22:00:00,
2013-01-23 17:05:00,10.2,-15.7,29.68,North,0,0.0,0.0,29,0.00,,---,0.00,VWS V14.00,2013-01-23 22:05:00,
2013-01-23 17:10:00,10.0,-15.9,29.68,North,0,0.0,0.0,29,0.00,,---,0.00,VWS V14.00,2013-01-23 22:10:00,
2013-01-23 17:16:00,10.0,-15.9,29.68,North,0,0.0,0.0,29,0.00,,---,0.00,VWS V14.00,2013-01-23 22:16:00,
2013-01-23 17:21:00,10.0,-15.9,29.68,North,0,0.0,0.0,29,0.00,,---,0.00,VWS V14.00,2013-01-23 22:21:00,
2013-01-23 17:26:00,9.7,-16.2,29.68,North,0,0.0,0.0,29,0.00,,---,0.00,VWS V14.00,2013-01-23 22:26:00,
2013-01-23 17:31:00,9.5,-16.3,29.68,North,0,0.0,0.0,29,0.00,,---,0.00,VWS V14.00,2013-01-23 22:31:00,
2013-01-23 17:36:00,9.5,-16.3,29.68,North,0,0.0,0.0,29,0.00,,---,0.00,VWS V14.00,2013-01-23 22:36:00,
2013-01-23 17:41:00,9.3,-16.5,29.68,North,0,0.0,0.0,29,0.00,,---,0.00,VWS V14.00,2013-01-23 22:41:00,
2013-01-23 17:47:00,9.3,-16.5,29.68,North,0,0.0,0.0,29,0.00,,---,0.00,VWS V14.00,2013-01-23 22:47:00,
2013-01-23 17:52:00,9.1,-16.7,29.68,North,0,0.0,0.0,29,0.00,,---,0.00,VWS V14.00,2013-01-23 22:52:00,
2013-01-23 17:57:00,9.0,-16.8,29.68,North,0,0.0,0.0,29,0.00,,---,0.00,VWS V14.00,2013-01-23 22:57:00,
2013-01-23 18:03:00,8.8,-17.0,29.68,North,0,0.0,0.0,29,0.00,,---,0.00,VWS V14.00,2013-01-23 23:03:00,
2013-01-23 18:09:00,8.8,-17.0,29.68,North,0,0.0,0.0,29,0.00,,---,0.00,VWS V14.00,2013-01-23 23:09:00,
2013-01-23 18:14:00,8.8,-17.0,29.68,North,0,0.0,0.0,29,0.00,,---,0.00,VWS V14.00,2013-01-23 23:14:00,
2013-01-23 18:19:00,8.6,-17.1,29.68,North,0,0.0,0.0,29,0.00,,---,0.00,VWS V14.00,2013-01-23 23:19:00,
2013-01-23 18:25:00,8.2,-17.5,29.68,North,0,0.0,0.0,29,0.00,,---,0.00,VWS V14.00,2013-01-23 23:25:00,
2013-01-23 18:30:00,8.1,-17.6,29.68,North,0,0.0,0.0,29,0.00,,---,0.00,VWS V14.00,2013-01-23 23:30:00,
2013-01-23 18:35:00,7.9,-17.8,29.71,North,0,0.0,0.0,29,0.00,,---,0.00,VWS V14.00,2013-01-23 23:35:00,
2013-01-23 18:40:00,8.1,-17.6,29.71,North,0,0.0,0.0,29,0.00,,---,0.00,VWS V14.00,2013-01-23 23:40:00,
2013-01-23 18:45:00,8.1,-17.6,29.71,North,0,0.0,0.0,29,0.00,,---,0.00,VWS V14.00,2013-01-23 23:45:00,
2013-01-23 18:51:00,8.1,-17.6,29.71,North,0,0.0,0.0,29,0.00,,---,0.00,VWS V14.00,2013-01-23 23:51:00,
2013-01-23 18:56:00,8.1,-17.6,29.71,North,0,0.0,0.0,29,0.00,,---,0.00,VWS V14.00,2013-01-23 23:56:00,
2013-01-23 19:01:00,7.9,-17.8,29.71,North,0,0.0,0.0,29,0.00,,---,0.00,VWS V14.00,2013-01-24 00:01:00,
2013-01-23 19:07:00,7.9,-17.8,29.71,North,0,0.0,0.0,29,0.00,,---,0.00,VWS V14.00,2013-01-24 00:07:00,
2013-01-23 19:12:00,7.9,-17.8,29.71,North,0,0.0,0.0,29,0.00,,---,0.00,VWS V14.00,2013-01-24 00:12:00,
2013-01-23 19:17:00,7.9,-17.8,29.71,North,0,0.0,0.0,29,0.00,,---,0.00,VWS V14.00,2013-01-24 00:17:00,
2013-01-23 19:23:00,8.1,-17.6,29.71,North,0,0.0,0.0,29,0.00,,---,0.00,VWS V14.00,2013-01-24 00:23:00,
2013-01-23 19:28:00,8.2,-17.5,29.71,North,0,0.0,0.0,29,0.00,,---,0.00,VWS V14.00,2013-01-24 00:28:00,
2013-01-23 19:33:00,8.2,-17.5,29.71,North,0,0.0,0.0,29,0.00,,---,0.00,VWS V14.00,2013-01-24 00:33:00,
2013-01-23 19:39:00,8.4,-17.3,29.71,North,0,0.0,0.0,29,0.00,,---,0.00,VWS V14.00,2013-01-24 00:39:00,
2013-01-23 19:44:00,8.1,-17.6,29.71,North,0,0.0,0.0,29,0.00,,---,0.00,VWS V14.00,2013-01-24 00:44:00,
2013-01-23 19:49:00,8.1,-17.6,29.71,North,0,0.0,0.0,29,0.00,,---,0.00,VWS V14.00,2013-01-24 00:49:00,
2013-01-23 19:54:00,8.1,-17.6,29.71,North,0,0.0,0.0,29,0.00,,---,0.00,VWS V14.00,2013-01-24 00:54:00,
2013-01-23 20:00:00,7.9,-17.8,29.71,North,0,0.0,0.0,29,0.00,,---,0.00,VWS V14.00,2013-01-24 01:00:00,
2013-01-23 20:05:00,7.9,-17.8,29.71,North,0,0.0,0.0,29,0.00,,---,0.00,VWS V14.00,2013-01-24 01:05:00,
2013-01-23 20:11:00,7.7,-17.9,29.71,North,0,0.0,0.0,29,0.00,,---,0.00,VWS V14.00,2013-01-24 01:11:00,
2013-01-23 20:16:00,7.5,-18.1,29.71,North,0,0.0,0.0,29,0.00,,---,0.00,VWS V14.00,2013-01-24 01:16:00,
2013-01-23 20:21:00,7.5,-18.1,29.71,North,0,0.0,0.0,29,0.00,,---,0.00,VWS V14.00,2013-01-24 01:21:00,
2013-01-23 20:27:00,7.5,-18.1,29.71,North,0,0.0,0.0,29,0.00,,---,0.00,VWS V14.00,2013-01-24 01:27:00,
2013-01-23 20:32:00,7.3,-18.2,29.71,North,0,0.0,0.0,29,0.00,,---,0.00,VWS V14.00,2013-01-24 01:32:00,
2013-01-23 20:37:00,7.2,-18.4,29.71,North,0,0.0,0.0,29,0.00,,---,0.00,VWS V14.00,2013-01-24 01:37:00,
2013-01-23 20:42:00,7.2,-18.4,29.71,North,0,0.0,0.0,29,0.00,,---,0.00,VWS V14.00,2013-01-24 01:42:00,
2013-01-23 20:47:00,7.2,-18.4,29.71,North,0,0.0,0.0,29,0.00,,---,0.00,VWS V14.00,2013-01-24 01:47:00,
2013-01-23 20:53:00,7.0,-18.6,29.71,North,0,0.0,0.0,29,0.00,,---,0.00,VWS V14.00,2013-01-24 01:53:00,
2013-01-23 20:58:00,7.0,-18.6,29.71,North,0,0.0,0.0,29,0.00,,---,0.00,VWS V14.00,2013-01-24 01:58:00,
2013-01-23 21:03:00,6.8,-18.7,29.71,North,0,0.0,0.0,29,0.00,,---,0.00,VWS V14.00,2013-01-24 02:03:00,
2013-01-23 21:09:00,6.8,-18.7,29.71,North,0,0.0,0.0,29,0.00,,---,0.00,VWS V14.00,2013-01-24 02:09:00,
2013-01-23 21:14:00,6.8,-18.7,29.71,North,0,0.0,0.0,29,0.00,,---,0.00,VWS V14.00,2013-01-24 02:14:00,
2013-01-23 21:19:00,6.6,-18.9,29.71,North,0,0.0,0.0,29,0.00,,---,0.00,VWS V14.00,2013-01-24 02:19:00,
2013-01-23 21:24:00,6.6,-18.9,29.71,North,0,0.0,0.0,29,0.00,,---,0.00,VWS V14.00,2013-01-24 02:24:00,
2013-01-23 21:29:00,6.4,-19.0,29.71,North,0,0.0,0.0,29,0.00,,---,0.00,VWS V14.00,2013-01-24 02:29:00,
2013-01-23 21:35:00,6.4,-19.0,29.71,North,0,0.0,0.0,29,0.00,,---,0.00,VWS V14.00,2013-01-24 02:35:00,
2013-01-23 21:40:00,6.3,-19.2,29.71,North,0,0.0,0.0,29,0.00,,---,0.00,VWS V14.00,2013-01-24 02:40:00,
2013-01-23 21:45:00,6.3,-19.2,29.71,North,0,0.0,0.0,29,0.00,,---,0.00,VWS V14.00,2013-01-24 02:45:00,
2013-01-23 21:50:00,6.1,-19.4,29.71,North,0,0.0,0.0,29,0.00,,---,0.00,VWS V14.00,2013-01-24 02:50:00,
2013-01-23 21:56:00,6.1,-19.4,29.71,North,0,0.0,0.0,29,0.00,,---,0.00,VWS V14.00,2013-01-24 02:56:00,
2013-01-23 22:02:00,6.1,-19.4,29.71,North,0,0.0,0.0,29,0.00,,---,0.00,VWS V14.00,2013-01-24 03:02:00,
2013-01-23 22:07:00,6.3,-19.2,29.71,North,0,0.0,0.0,29,0.00,,---,0.00,VWS V14.00,2013-01-24 03:07:00,
2013-01-23 22:12:00,6.1,-19.4,29.71,North,0,0.0,0.0,29,0.00,,---,0.00,VWS V14.00,2013-01-24 03:12:00,
2013-01-23 22:17:00,6.1,-19.4,29.71,North,0,0.0,0.0,29,0.00,,---,0.00,VWS V14.00,2013-01-24 03:17:00,
2013-01-23 22:22:00,5.9,-19.5,29.71,North,0,0.0,0.0,29,0.00,,---,0.00,VWS V14.00,2013-01-24 03:22:00,
2013-01-23 22:28:00,5.9,-19.5,29.71,North,0,0.0,0.0,29,0.00,,---,0.00,VWS V14.00,2013-01-24 03:28:00,
2013-01-23 22:33:00,5.9,-19.5,29.71,North,0,0.0,0.0,29,0.00,,---,0.00,VWS V14.00,2013-01-24 03:33:00,
2013-01-23 22:38:00,5.9,-19.5,29.71,North,0,0.0,0.0,29,0.00,,---,0.00,VWS V14.00,2013-01-24 03:38:00,
2013-01-23 22:44:00,5.7,-19.7,29.71,North,0,0.0,0.0,29,0.00,,---,0.00,VWS V14.00,2013-01-24 03:44:00,
2013-01-23 22:49:00,5.5,-19.8,29.71,North,0,0.0,0.0,29,0.00,,---,0.00,VWS V14.00,2013-01-24 03:49:00,
2013-01-23 22:54:00,5.7,-19.7,29.71,North,0,0.0,0.0,29,0.00,,---,0.00,VWS V14.00,2013-01-24 03:54:00,
2013-01-23 22:59:00,5.7,-19.7,29.71,North,0,0.0,0.0,29,0.00,,---,0.00,VWS V14.00,2013-01-24 03:59:00,
2013-01-23 23:05:00,5.5,-19.8,29.71,North,0,0.0,0.0,29,0.00,,---,0.00,VWS V14.00,2013-01-24 04:05:00,
2013-01-23 23:10:00,5.5,-19.8,29.71,North,0,0.0,0.0,29,0.00,,---,0.00,VWS V14.00,2013-01-24 04:10:00,
2013-01-23 23:15:00,5.5,-19.8,29.71,North,0,0.0,0.0,29,0.00,,---,0.00,VWS V14.00,2013-01-24 04:15:00,
2013-01-23 23:20:00,5.4,-20.0,29.71,North,0,0.0,0.0,29,0.00,,---,0.00,VWS V14.00,2013-01-24 04:20:00,
2013-01-23 23:25:00,5.4,-20.0,29.71,North,0,0.0,0.0,29,0.00,,---,0.00,VWS V14.00,2013-01-24 04:25:00,
2013-01-23 23:31:00,5.4,-20.0,29.71,North,0,0.0,0.0,29,0.00,,---,0.00,VWS V14.00,2013-01-24 04:31:00,
2013-01-23 23:37:00,5.4,-20.0,29.71,North,0,0.0,0.0,29,0.00,,---,0.00,VWS V14.00,2013-01-24 04:37:00,
2013-01-23 23:42:00,5.2,-20.1,29.71,North,0,0.0,0.0,29,0.00,,---,0.00,VWS V14.00,2013-01-24 04:42:00,
2013-01-23 23:47:00,5.0,-20.3,29.71,North,0,0.0,0.0,29,0.00,,---,0.00,VWS V14.00,2013-01-24 04:47:00,
2013-01-23 23:52:00,5.0,-20.3,29.71,North,0,0.0,0.0,29,0.00,,---,0.00,VWS V14.00,2013-01-24 04:52:00,
2013-01-23 23:57:00,4.8,-20.5,29.71,North,0,0.0,0.0,29,0.00,,---,0.00,VWS V14.00,2013-01-24 04:57:00,